Regional Weather Roundup
Issued by NWS

Home | Current Version | Previous Version | Graphics & Text | Print | Product List | Glossary On
Versions: 1 2 3 4 5 6 7 8 9 10 11 12 13 14 15 16 17 18 19 20 21 22 23 24 25 26 27 28 29 30 31 32 33 34 35 36 37 38 39 40 41 42 43 44 45 46 47 48 49 50
000
ASUS43 KBIS 311302
RWRND

NORTH DAKOTA REGIONAL WEATHER ROUNDUP
NATIONAL WEATHER SERVICE BISMARCK ND
800 AM CDT FRI JUL 31 2015

NOTE: "FAIR" INDICATES FEW OR NO CLOUDS BELOW 12,000 FEET WITH NO
SIGNIFICANT WEATHER AND/OR OBSTRUCTIONS TO VISIBILITY.


NDZ001>003-009>011-017-311400-
NORTHWEST NORTH DAKOTA

CITY           SKY/WX    TMP DP  RH WIND       PRES   REMARKS
WILLISTON      SUNNY     61  53  75 SW3       30.16S
MINOT          SUNNY     63  52  67 NW6       30.14R
MINOT AFB      SUNNY     60  55  84 W5        30.13S
$$

NDZ018>021-031>035-040>046-311400-
SOUTHWEST NORTH DAKOTA

CITY           SKY/WX    TMP DP  RH WIND       PRES   REMARKS
BISMARCK       SUNNY     59  53  80 W3        30.18S
DICKINSON      SUNNY     63  51  65 SW5       30.18S
GARRISON         N/A     61  54  77 CALM      30.15S
HETTINGER ARPT SUNNY     52  48  86 CALM      30.23R
$$

NDZ004>008-012>016-024-026-027-054-311400-
NORTHEAST NORTH DAKOTA

CITY           SKY/WX    TMP DP  RH WIND       PRES   REMARKS
GRAND FORKS    MOSUNNY   64  54  69 W9        30.06R
GRND FRKS AFB  SUNNY     64  54  69 NW9       30.07R
DEVILS LAKE    PTSUNNY   63  50  63 W10       30.11R
$$

NDZ022-023-025-028>030-036>039-047>053-311400-
SOUTHEAST NORTH DAKOTA

CITY           SKY/WX    TMP DP  RH WIND       PRES   REMARKS
FARGO          SUNNY     62  54  74 W12       30.09R
JAMESTOWN      SUNNY     63  53  70 W8        30.14R
$$




USA.gov is the U.S. government's official web portal to all federal, state and local government web resources and services.